Weather Roundup
Issued by NWS Chicago, IL

Home | Current Version | Previous Version | Graphics & Text | Print | Product List | Glossary On
Versions: 1 2 3 4 5 6 7 8 9 10 11 12 13 14 15 16 17 18 19 20 21 22 23 24 25 26 27 28 29 30 31 32 33 34 35 36 37 38 39 40 41 42 43 44 45 46 47 48 49 50
828
NZUS59 KLOT 202204
HRRLOT

CHICAGO AREA WEATHER ROUNDUP
NATIONAL WEATHER SERVICE CHICAGO/ROMEOVILLE IL
500 PM CDT SUN AUG 20 2017

NOTE: "FAIR" INDICATES FEW OR NO CLOUDS BELOW 12,000 FEET WITH NO
SIGNIFICANT WEATHER AND/OR OBSTRUCTIONS TO VISIBILITY.

* THESE STATIONS ARE NOT UNDER NWS QUALITY CONTROL. THEY ALSO MAY NOT
  REPORT WEATHER SUCH AS PRECIPITATION OR FOG.

ILZ005-006-012>014-019>023-202300-
NORTHEAST ILLINOIS

CITY           SKY/WX    TMP DP  RH WIND       PRES   REMARKS
OHARE          CLOUDY    84  67  56 SW8       30.00S HX  86
MIDWAY         CLOUDY    84  70  62 S9        30.00S HX  88
AURORA         CLOUDY    76  73  91 NW5       30.01F
LANSING*       CLOUDY    83  68  59 S8        30.02S HX  86
JOLIET*        CLOUDY    82  74  76 E5        29.99F HX  88
WAUKEGAN       CLOUDY    78  68  71 SE8       30.00S HX  80
DUPAGE AIRPORT CLOUDY    80  72  76 SE5       30.00F HX  84
WHEELING       CLOUDY    84  70  62 W5        30.01S HX  88
MORRIS*        CLOUDY    79  72  80 CALM      29.98S HX  81
NORTHERLY ISL    N/A     84  64  50 S9          N/A  HX  85
$$

WIZ051-052-058>065-066-070>072-202300-
SOUTHEAST WISCONSIN

CITY           SKY/WX    TMP DP  RH WIND       PRES   REMARKS
MILWAUKEE      CLOUDY    80  68  66 S9        30.00F HX  83
KENOSHA*       CLOUDY    80  67  64 SE9       30.01F HX  82
RACINE*        CLOUDY    78  67  68 S9        30.02F HX  80
WAUKESHA       MOSUNNY   77  66  69 SW6       30.01F
$$

INZ001>003-010>013-019-020-202300-
NORTHWEST INDIANA

CITY           SKY/WX    TMP DP  RH WIND       PRES   REMARKS
GARY*          CLOUDY    86  66  51 S5        30.02F HX  88
MICHIGAN CITY* NOT AVBL
RENSSELAER*    NOT AVBL
VALPARAISO     CLOUDY    84  71  65 S5        30.04S HX  89
$$

LMZ740>746-202300-
SOUTHERN LAKE MICHIGAN

STATION/POSITION TIME  SKY/WX   TEMP WIND        PRES    VSBY
                                AIR  DIR/SP/G
                 (UTC)          (F)  (DEG/KT/KT) (MB)    (MI)
HARRISON CRIB    2130            78  140/ 15/ 16   N/A
BURNHAM HARBOR   NOT AVBL
CALUMET HARBOR   2130            83  200/  8/ 14 1015.5F
BURNS HARBOR     2140            84  190/  6/ 10 1016.6F
MICHIGAN CITY    2140            83  170/  6/  8   N/A
$$

ABBREVIATIONS USED IN REMARKS
   TC - TEMPERATURE IN CELSIUS
  WCI - WIND CHILL INDEX
   HX - HEAT INDEX
  VSB - VISIBILITY
$$




USA.gov is the U.S. government's official web portal to all federal, state and local government web resources and services.